Погода в Таллинне

Погода в Таллинне : погода сейчас, прогноз погоды и архив. Всё, что Вы хотите узнать о погоде в Таллинне!

Поиск расширенной информации на нашем сайте:

Другие новости

Новости СМИ2

Главная страница сайта

Новости сайта

03.07.2017

Напоминаем, что на нашем специализированном сайте Метеоцентр.Азия вы можете получить высокодетализированные автоматические прогнозы погоды по пунктам России, СНГ и мира в авиационном формате (включающие направление и скорость ветра, видимость, явления погоды, количество и форму облачности, нижнюю и верхнюю границу облачности).


Погода в Таллинне - сегодня

Время (UTC), дата Ветер
(°,м/с) 
Видим.   Явления Облачность Т
(°С)
Тd
(°С)
f(%) Тe
(°С)
Pmin
(гПа)
dP
(гПа)
Po
(мм)
O2
(г/м3)
Тmin Tmax R s Состояние
почвы
03 15.08.17 200 (Ю) 20000 м    ясно 
+10 +8.8 92 +10  1027.2  0.9  767  297  +9.4  +18.6       
06 15.08.17 200 (Ю) 20000 м    8/0 верхняя 
[Cc]
+14.9 +11.1 78 +18  1027.7  0.5  768  291  +9.4  +15.4       
09 15.08.17 220 (ЮЗ) 20000 м    3/3 1230 м верхняя 
[Cu hum|Cc]
+19.1 +9 52 +20  1027.5  0.2  768  288  +9.4  +19.5       
12 15.08.17 170 (Ю) 20000 м    4/3 1440 м верхняя 
[Cu hum|Cc]
+21.1 +7.9 43 +21  1026.9  -0.6  767  286  +9.4  +21.9       
15 15.08.17 020 (С) 20000 м    4/3 1500 м верхняя 
[Cu hum|Cc]
+19.1 +12.7 66 +24  1025.9  -1  766  286  +9.8  +22.1       
21 15.08.17 150 (ЮВ) 20000 м    3/1 800 м средняя 
[Sc|Ac trans]
+11 +9.6 91 +11  1024.9  -0.5  766  295  +10.9  +22.1       
00 16.08.17 150 (ЮВ) 20000 м    8/8 1500 м средняя 
[Ac trans]
+13.7 +8.2 69 +14  1024.5  -0.4  765  292  +10.9  +22.1       
03 16.08.17 160 (Ю) 20000 м    9/9 2000 м средняя 
[Ac trans]
+14.1 +11.1 82 +16  1023.4  -1.1  765  291  +10.9  +19.3       
09 16.08.17 170 (Ю) 20000 м    9/3 1000 м средняя 
[Sc|Ac trans]
+19.7 +13 65 +26  1022.3  -0.4  764  285  +11  +19.7       
12 16.08.17 200 (Ю) 20000 м    9/9 2000 м средняя 
[Ac trans]
+21.4 +12.6 57 +26  1021.4  -0.9  763  283  +13.6  +21.8       
15 16.08.17 150 (ЮВ) 20000 м    8/8 2000 м средняя 
[Ac trans]
+21.4 +13 59 +26  1020.4  -1  762  282  +14.2  +22.1       
21 16.08.17 140 (ЮВ) 20000 м    6/6 1000 м 
[Sc]
+17.7 +11.4 67 +21  1020.1  -0.3  762  286  +17.6  +22.1       
00 17.08.17 160 (Ю) 20000 м    8/5 1000 м средняя 
[Sc|Ac trans]
+17 +12.5 75 +21  1019.3  -0.8  761  286  +17  +22.1       
03 17.08.17 090 (В) 20000 м    9/9 2000 м средняя 
[Ac As]
+16.4 +14 86 +25  1019.1  -0.2  761  287  +16.4  +21.4       
09 17.08.17 020 (С) 20000 м    8/3 800 м средняя, верхняя 
[Cu hum|Ac As|Cs]
+21.1 +16.3 74 +32  1018.8  -0.5  761  281  +16.2  +21.7       
12 17.08.17 020 (С) 20000 м    6/4 800 м средняя, верхняя 
[Cu med, cong|Ac trans|Cc]
+22.5 +17.5 73 +35  1017.5  -1.3  760  279  +16.2  +23.8       
15 17.08.17 030 (СВ) 20000 м  слаб. ливневой дождь  9/6 500 м кучево-дожд., средняя, верхняя 
[Cb cap|Ac As|Ci fib]
+20.9 +18.4 86 +36  1016.4  -1.1  759  280  +16.2  +23.9       
03 18.08.17 200 (Ю) 4300 м  дымка  10/10 120 м 
[St]
+16.1 +16 99 +27  1016.5  0.4  759  285  +15.5  +20.9       
12 18.08.17 200 (Ю) 20000 м    9/1 1000 м средняя, верхняя 
[Sc|Ac As|Cs]
+21 +13.9 64 +28  1015.7  -1.1  759  281  +16  +21.5       
15 18.08.17 200 (Ю) 20000 м  слаб. дождь  10/10 1500 м 
[Ns]
+17.6 +14.6 83 +26  1015.1  -0.6  758  284  +16.1  +21.5  0.2     
18 18.08.17 150 (ЮВ) 20000 м  {ливн. осадки, дождь}  9/8 1110 м средняя 
[Sc|Ac trans]
+17.1 +15.6 91 +27  1013.7  -1.4  757  284  +16.9  +21.5  0.2     
21 18.08.17 180 (Ю) 20000 м    9/9 1080 м 
[Sc diur, vesp]
+16.5 +15.1 91 +26  1013.1  -0.6  757  284  +16.4  +21.5       
00 19.08.17 190 (Ю) 11000 м    ясно 
+14.9 +14.8 99 +24  1012.8  -0.3  757  286  +14.9  +21.5       
06 19.08.17 130 (ЮВ) 20000 м  в посл. час ливневой дождь  10/4 2000 м кучево-дожд., средняя 
[Cb cap|Ac und]
+15.7 +15.5 99 +25  1010.2  -2  755  284  +14.1  +17.5     
09 19.08.17 140 (ЮВ) 20000 м  в посл. час гроза{ливн. осадки}  9/5 900 м кучево-дожд., средняя 
[Cb cap|Ac trans]
+21.2 +18.9 87 +37  1007.9  -2.3  753  277  +14.1  +21.2     
Время (UTC), дата Ветер
(°,м/с) 
Видим.   Явления Облачность Т
(°С)
Тd
(°С)
f(%) Тe
(°С)
Pmin
(гПа)
dP
(гПа)
Po
(мм)
O2
(г/м3)
Тmin Tmax R s Состояние
почвы

Для получения пояснительной информации подведите курсор к названию столбца.

ПОГОДА в Таллинне - архив

Всё, что Вы хотите узнать о погоде в Таллинне - удобно и подробно!

Выберите нужную дату (начиная с 1 января 2015* года) и нажмите кнопку "Найти".
Будут отображены архивные сводки погоды по пункту Таллинн, начиная с указанной даты.


Отображать данные в формате CSV (для использования в таблицах Excel)


Внимание! Наш архив погоды предназначен исключительно для личного некоммерческого использования в познавательных целях. Если Вам необходимы официальные справки о состоянии погоды (для производственных, юридических, коммерческих и т.п. целей), обращайтесь в органы Росгидромета.

*Примечание: данная дата относится к архиву по метеостанциям СССР (Россия, СНГ, Балтия).
Архив по метеостанциям Зарубежной Европы и Азии (кроме Китая) хранится 10 дней, по другим регионам земного шара (Китай, Африка, Америка, Австралия, Океания) - 1 день.

Таллинн - район местоположения метеостанции


Название, широта, долгота, высота метеостанции:
Таллинн 59.4°ш. 24.6°д. 34 м над ур. моря [Эстония]

Дополнительная информация

В oтличие oт бoльшинства пoгoдных сайтoв мы публикуем пoдрoбную метеoинфoрмацию в детальнoм прoфессиoнальнoм фoрмате.

Характеристики температуры и влажнoсти вoздуха измеряются на высoте 2 м в тени вдали oт зданий и деревьев.
Скoрoсть ветра измеряется на высoте 10 м (на урoвне рoста челoвека скoрoсть ветра ниже в 1.5-2 раза). Если метеoстанция нахoдится в гoрoде или в лесу, тo скoрoсть ветра занижена на 2-4 м/с пo сравнению с oткрытым местoм. Скoрoсть ветра над акватoриями крупных рек и oзёр, а также на вершинах хoлмoв на 2-5 м/с выше, чем в oбычных услoвиях.
Атмoсфернoе давление в разных тoчках местнoсти мoжет значительнo oтличаться oт давления на метеoстанции, в зависимoсти oт услoвий рельефа (при пoдъёме на 10 м давление пoнижается примернo на 1 мм рт.ст.).